Regional Weather Roundup
Issued by NWS

Home | Current Version | Previous Version | Text Only | Print | Product List | Glossary Off
Versions: 1 2 3 4 5 6 7 8 9 10 11 12 13 14 15 16 17 18 19 20 21 22 23 24 25 26 27 28 29 30 31 32 33 34 35 36 37 38 39 40 41 42 43 44 45 46 47 48 49 50

000
ASUS43 KFSD 310202
RWRSD

WEATHER ROUNDUP FOR SOUTH DAKOTA
NATIONAL WEATHER SERVICE SIOUX FALLS SD
900 PM CDT TUE AUG 30 2016

NOTE: "FAIR" INDICATES FEW OR NO CLOUDS BELOW 12,000 FEET WITH NO
SIGNIFICANT WEATHER AND/OR OBSTRUCTIONS TO VISIBILITY.


SDZ001>005-009-010-012>017-310300-
NORTHWEST AND NORTH CENTRAL SOUTH DAKOTA

CITY           SKY/WX    TMP DP  RH WIND       PRES   REMARKS
BUFFALO          N/A     76  58  53 SE12      30.08S
MOBRIDGE       CLOUDY    74  60  61 SE6       30.15R
$$

SDZ012>016-024>037-041>051-057-063-072>074-310300-
SOUTHWEST AND SOUTH CENTRAL SOUTH DAKOTA

CITY           SKY/WX    TMP DP  RH WIND       PRES   REMARKS
RAPID CTY ARPT MOCLDY    72  60  66 E6        30.18R
PIERRE         CLOUDY    73  57  57 NE6       30.14S
CUSTER         CLOUDY    69  53  56 E6        30.33R
ELLSWORTH AFB  CLEAR     75  61  61 CALM      30.18R
PHILIP         CLOUDY    75  62  64 E17       30.15R
PINE RIDGE     CLEAR     70  58  65 E9        30.19R
WINNER         FAIR      75  65  70 SE8       30.18R
$$

SDZ004>011-016>023-039-040-310300-
NORTHEAST SOUTH DAKOTA

CITY           SKY/WX    TMP DP  RH WIND       PRES   REMARKS
ABERDEEN       CLOUDY    69  58  67 E6        30.19R
WATERTOWN      CLOUDY    71  57  61 E3        30.20S
SISSETON         N/A     63  59  87 CALM      30.19R
$$

SDZ017-020-022-023-036>040-048>070-310300-
SOUTHEAST SOUTH DAKOTA

CITY           SKY/WX    TMP DP  RH WIND       PRES   REMARKS
SIOUX FALLS    PTCLDY    70  63  78 NE7       30.19R
HURON          CLOUDY    73  62  68 E7        30.17R
CHAMBERLAIN    CLEAR     76  65  67 E5        30.16S
MITCHELL       CLEAR     74  69  85 E8        30.17R
YANKTON        CLOUDY    73  64  73 E7        30.16R
$$

ABBREVIATIONS USED IN REMARKS
   TC - TEMPERATURE IN CELSIUS
  WCI - WIND CHILL INDEX
   HX - HEAT INDEX
  VSB - VISIBILITY





USA.gov is the U.S. government's official web portal to all federal, state and local government web resources and services.